Starlink 31231

operational
NORAD ID: 59034 Int'l Des: 2024-038 Owner: SPXS Country: US Constellation: starlink
LEOCIRCULAR

关于 Starlink 31231

正在加载描述...

实时位置

正在加载3D地球...

即将过境

高度历史

Altitude vs Time

uPlot chart will show altitude changes over time

两行轨道根数

1 59034U 24038M 25352.38647708 -.00001969 00000-0 -62057-4 0 9999
2 59034 43.0014 122.7507 0000981 280.5068 79.5673 15.27585321102252
Epoch: Dec 18, 2025 • Age: 32 hours

当前状态

高度 484.8 km
速度 7.62 km/s
星下点 -10.23°S, 44.96°W
发射日期 Feb 25, 2024
运行时间 1.8 years
类型 internet

技术详情

分类 Payload
质量 730.00 kg
干质量 700.00 kg
总质量 730.00 kg
长度 0.30 m
直径 4.10 m
跨度 29.00 m
形状 Box + pan
制造商 SPXS
平台类型 Starlink V2M
阶段状态 In Orbit
所有者/国家 SPXS/US

大型星座

Loading constellations...